Location: Bun Machan
(52.1403°N, 7.3744°W)
Time: 18:10:39
(UTC+00:00)

Cosmos 1725 Rocket - Pass Details

Date: 14 July 2020
Orbit: 963 x 990 km, 82.9° (Epoch: 12 August)

Event Time Altitude Azimuth Distance (km) Brightness Sun altitude
Exits shadow 03:05:47 11° 206° (SSW) 2,636 5.6 -9.3°
Maximum altitude 03:11:43 60° 285° (WNW) 1,113 4.2 -8.8°
Drops below altitude 10° 03:17:55 10° 5° (N) 2,743 7.3 -8.2°
Sets 03:20:31 0° 9° (N) 3,699 8.2 -7.9°
